sat.trackr.live / text

‹ back to catalog

SDGSAT 1

NORAD 49387 · 2021-100A

PAYLOAD ACTIVE UNKNOWN

§ Identity

Operator
Country
PRC
Launch date
2021-11-05
Launch site
TAISC
Launch vehicle
Mass (kg)
RCS (m²)

External: N2YO · Heavens-Above · Gunter

§ Orbital elements

Epoch: 2026-09-15T22:07:31.747872Z

Period
94.77 min
Inclination
97.2547°
Eccentricity
0.0008358
Mean motion
15.19484982 rev/d
Perigee alt
501.6 km
Apogee alt
513.2 km
Semi-major
6,885.5 km
B*
9.7566e-5
RAAN
302.3808°
Arg perigee
322.7541°
Mean anomaly
37.3114°
Rev number
26,969

§ Raw data

SDGSAT 11 49387U 21100A   26258.92189523  .00002006  00000+0  97566-4 0  99912 49387  97.2547 302.3808 0008358 322.7541  37.3114 15.19484982269691

JSON: /api/v1/satellites/49387 · /tle

For live sub-satellite position, see the globe view (requires WebGL).

§ Visibility from observer

Set your observer location to see the next 7 days of passes ≥ 10°. The values pass through the URL so the page stays shareable.

No JS? Fill the form by hand. The geolocation button needs JavaScript.

§ Radio — SatNOGS DB

ModeDescriptionDownlinkUplink
FM S-band telemetry 2.210 GHz

1 transmitter · refreshed weekly from db.satnogs.org